www.pogodaiklimat.ru

Погода и климат >> Архив погоды >> Казахстан >> Казалинск


АРХИВ ПОГОДЫ в Казалинске

Время (UTC), дата Ветер
(напр.,м/с)
 
Видим.   Явления Облачность Т
(С)
Тd
(С)
f
(%)
Тe
(С)
Тes
(С)
Комфортность P
(гПа)
Po
(гПа)
Тmin
(С)
Tmax
(С)
R
(мм)
R24
(мм)
S
(см)
18 10.07 штиль 0 20 км 5/0
[Ac trans Ci sp]
+29.2 +11.1 33 +30 +30 жарко 1004.2 996.5 +36.8
21 10.07 штиль 0 20 км ясно +26.6 +10.6 37 +27 +27 жарко 1003.3 995.6
00 11.07 штиль 0 20 км 8/4 600 м
[Cb calv Ac trans]
+24.6 +9.7 39 +25 +25 комфорт 1003.2 995.4
03 11.07 штиль 0 20 км 8/5 600 м
[Cb calv Ac trans]
+25.7 +13.0 45 +28 +30 жарко 1004.0 996.2
06 11.07 штиль 0 20 км 5/0
[Ac trans]
+33.4 +8.5 22 +32 +47 жарко 1003.8 996.2 +23.6
09 11.07 В 1 20 км 4/0
[Ac trans Ci fib]
+38.2 +9.7 18 +37 +53 опасность
солнечного
удара
1002.6 995.2
12 11.07 штиль 0 20 км 4/0
[Ac trans]
+39.0 +11.4 19 +38 +45 очень
жарко
1001.6 994.2
15 11.07 штиль 0 20 км 4/3 1000 м
[Cu hum Ac trans]
+36.8 +12.9 24 +37 +37 очень
жарко
1001.5 994.1 +39.6
18 11.07 В 2 20 км ясно +30.6 +10.9 30 +31 +31 жарко 1001.9 994.3 +39.6
21 11.07 В 1 20 км ясно +27.0 +10.7 36 +28 +28 жарко 1001.7 994.1
00 12.07 В 1 20 км ясно +22.7 +11.0 48 +25 +25 комфорт 1002.5 994.8
03 12.07 В 1 20 км ясно +28.4 +12.8 38 +30 +35 жарко 1003.5 995.8
06 12.07 ЮВ 2 20 км ясно +37.4 +10.2 19 +36 +52 опасность
солнечного
удара
1003.4 996.0 +22.7
09 12.07 В 2 20 км ясно +39.8 +9.5 16 +38 +55 опасность
солнечного
удара
1002.8 995.4
12 12.07 В 1 20 км ясно +40.0 +9.9 16 +38 +47 очень
жарко
1001.8 994.4
15 12.07 штиль 0 20 км ясно +34.3 +14.4 30 +35 +36 очень
жарко
1002.4 994.9 +40.1
18 12.07 СВ 1 20 км ясно +29.9 +11.0 31 +30 +30 жарко 1003.1 995.4 +40.1
21 12.07 СВ 1 20 км ясно +24.9 +9.9 39 +26 +26 жарко 1002.9 995.1
00 13.07 СВ 1 20 км 3/0
[Ci sp]
+22.3 +9.0 43 +24 +24 комфорт 1003.2 995.4
03 13.07 штиль 0 20 км 3/0
[Ci fib]
+26.1 +11.5 40 +27 +33 жарко 1003.3 995.6
06 13.07 штиль 0 20 км ясно +36.2 +10.3 21 +35 +56 опасность
солнечного
удара
1003.1 995.7 +21.6
09 13.07 штиль 0 20 км 3/0
[Ci sp]
+38.8 +8.5 16 +37 +59 опасность
солнечного
удара
1002.1 994.7
12 13.07 штиль 0 20 км 3/0
[Ci fib]
+39.6 +8.0 15 +37 +46 очень
жарко
1001.2 993.8
15 13.07 штиль 0 20 км ясно +37.4 +15.5 27 +39 +39 очень
душно
1001.0 993.6 +41.1
18 13.07 С 1 20 км ясно +30.2 +10.2 29 +30 +30 жарко 1001.7 994.1 +41.1
21 13.07 С 1 20 км ясно +25.5 +9.3 36 +26 +26 жарко 1001.2 993.5
00 14.07 штиль 0 20 км ясно +22.1 +9.0 43 +23 +23 комфорт 1001.8 994.1
03 14.07 В 1 20 км ясно +26.2 +10.0 36 +27 +32 жарко 1002.4 994.8
06 14.07 В 1 20 км ясно +37.0 +10.9 21 +36 +54 опасность
солнечного
удара
1002.4 995.0 +21.1
09 14.07 ЮВ 1 20 км ясно +40.4 +10.2 16 +39 +59 опасность
солнечного
удара
1002.1 994.7
12 14.07 штиль 0 20 км ясно +41.0 +9.5 15 +39 +49 очень
жарко
1001.3 993.9
15 14.07 штиль 0 20 км ясно +36.5 +11.3 22 +36 +36 очень
жарко
1001.0 993.6 +41.2
18 14.07 штиль 0 20 км ясно +28.6 +12.2 36 +30 +30 жарко 1001.2 993.6 +41.2
21 14.07 штиль 0 20 км ясно +25.2 +9.5 37 +26 +26 жарко 1001.2 993.5
00 15.07 штиль 0 20 км ясно +22.4 +10.9 48 +24 +24 комфорт 1001.6 993.9
03 15.07 штиль 0 20 км ясно +27.0 +13.9 45 +29 +35 жарко 1002.4 994.8
06 15.07 СЗ 1 20 км ясно +35.2 +15.9 32 +37 +56 опасность
солнечного
удара
1002.9 995.3 +22.3
09 15.07 СЗ 2 20 км ясно +36.6 +15.9 29 +38 +56 опасность
солнечного
удара
1002.6 995.2
12 15.07 СЗ 2 20 км 3/0
[Ci sp]
+37.0 +15.1 27 +38 +45 душно 1002.3 994.9
15 15.07 СЗ 2 20 км 8/3 600 м
[Cb calv Ac trans]
+32.6 +13.4 31 +34 +34 очень
жарко
1003.0 995.4 +37.6
18 15.07 СЗ 3 20 км 3/0
[Ac trans]
+28.7 +13.8 40 +31 +31 жарко 1003.4 995.7 +37.6
21 15.07 СЗ 4 20 км ясно +26.7 +12.8 42 +28 +28 жарко 1004.0 996.3
00 16.07 С 7 20 км ясно +26.6 +12.9 43 +28 +28 жарко 1005.2 997.5
03 16.07 С 7 20 км ясно +25.5 +9.8 37 +26 +28 жарко 1006.7 998.9
06 16.07 С 3 20 км ясно +30.0 +8.8 27 +29 +42 жарко 1007.0 999.3 +25.1
09 16.07 С 4 20 км ясно +33.3 +7.1 20 +32 +43 жарко 1006.2 998.6
12 16.07 С 2 20 км ясно +34.8 +5.6 16 +32 +39 жарко 1005.6 998.0
15 16.07 С 1 20 км ясно +32.4 +10.2 26 +32 +32 жарко 1005.8 998.2 +34.8
18 16.07 С 1 20 км ясно +27.9 +8.2 29 +28 +28 жарко 1006.8 999.1 +34.8
21 16.07 С 2 20 км ясно +25.9 +7.3 31 +26 +26 жарко 1006.8 999.0
00 17.07 С 1 20 км ясно +22.1 +7.3 38 +23 +23 комфорт 1007.4 999.6
03 17.07 СВ 2 20 км ясно +24.8 +8.4 35 +25 +30 комфорт 1008.2 1000.4
06 17.07 СВ 3 20 км ясно +32.0 +8.4 23 +31 +44 жарко 1008.1 1000.5 +21.3
09 17.07 СВ 2 20 км ясно +35.0 +8.6 20 +33 +51 опасность
солнечного
удара
1006.7 999.1
12 17.07 СВ 2 20 км ясно +36.9 +7.7 17 +35 +42 очень
жарко
1006.2 998.8
15 17.07 С 1 20 км 5/0
[Ci sp]
+33.5 +9.0 22 +32 +32 жарко 1006.6 999.0 +37.1

 

Местоположение метеостанции Казалинск (Кызылординская область, Казахстан): широта 45.77 долгота 62.12 высота над уровнем моря 68 м.

В архиве по умолчанию представлена погода в Казалинске за последнюю неделю. Архивные данные за месяц целиком и за предыдущие месяцы, начиная с января 2011 года, Вы можете получить, выбрав интересующий диапазон дат из раскрывающегося списка и нажав кнопку "Ввод!".


*Определитесь, кто Вы:
робот инопланетянин человек

Внимание! Время в таблицах - всемирное. Для получения местного времени необходимо прибавить поправку, которая равна 6 ч.

Смотрите также архив погоды в соседних городах и на ближайших метеорологических станциях:

Погода в Каукее (Кызылординская область, Казахстан) (71 км)
Погода в Акае (Кызылординская область, Казахстан) (91 км)
Погода в Аральске (Кызылординская область, Казахстан) (118 км)
Погода в Караке (Кызылординская область, Казахстан) (129 км)
Погода в Жосалы (Кызылординская область, Казахстан) (155 км)
Погода в Ширик-Рабате (Кызылординская область, Казахстан) (199 км)
Погода в Жалагаше (Кызылординская область, Казахстан) (214 км)
Погода в Аяккуме (Актюбинская область, Казахстан) (250 км)
Погода в Кульжамбае (Карагандинская область, Казахстан) (260 км)
Погода в Кызылорде (Кызылординская область, Казахстан) (283 км)

Пояснения к столбцам:

Ветер - указаны скорость ветра в м/с - средняя за 10 мин, порывы в срок и между сроками (в фигурных скобках) и направление, откуда дует ветер: С - северный, СВ - северо-восточный, В - восточный, ЮВ - юго-восточный, Ю - южный, ЮЗ - юго-западный, З - западный, СЗ - северо-западный.
Видимость - горизонтальная дальность видимости в метрах или километрах. При видимости от 1 до 10 км при отсутствии осадков обычно наблюдается дымка, при ухудшении видимости до 1 км и менее - туман. В сухую погоду видимость может ухудшаться дымом, пылью или мглою.
Явления - указаны атмосферные явления, наблюдавшиеся в срок или в последний час перед сроком; фигурными скобками обозначены явления, наблюдавшиеся между сроками (за 1-3 часа до срока); квадратными скобками обозначены град или гололедные отложения с указанием их диаметра в мм.
Облачность - указаны через наклонную черту общая и нижняя облачность в баллах и высота нижней границы облаков в метрах; квадратными скобками обозначены формы облаков: Ci - перистые, Cs - перисто-слоистые, Cc - перисто-кучевые, Ac - высококучевые, As - высокослоистые, Sc - слоисто-кучевые, Ns - слоисто-дождевые, Cu - кучевые, Cb - кучево-дождевые. Подробнее классификацию облаков см. в Атласе облаков (PDF).
T - Температура воздуха - температура, измеренная на высоте 2 м над землей.
Td - Температура точки росы - температура, при понижении до которой содержащийся в воздухе водяной пар достигнет насыщения.
f - Относительная влажность воздуха - влажноcть воздуха, измеренная на высоте 2 м над землей.
Te - Эффективная температура - температура, которую ощущает одетый по сезону человек в тени. Характеристика душности погоды. При расчете учитывается влияние влажности воздуха и скорости ветра на теплоощущения человека.
Tes - Эффективная температура на солнце - температура, которую ощущает человек, с поправкой на солнечный нагрев. Характеристика знойности погоды. Зависит от высоты солнца над горизонтом, облачности и скорости ветра. Ночью, в пасмурную погоду, а также при ветре 12 м/с и более поправка равна нулю.
P - Атмосферное давление - приведенное к уровню моря атмосферное давление.
Po - Атмосферное давление - измеренное на уровне метеостанции атмосферное давление.
Tmin - Минимальная температура - минимум температуры воздуха на высоте 2 м над землей.
Tmax - Максимальная температура - максимум температуры воздуха на высоте 2 м над землей.
R - Количество осадков - Количество выпавших осадков за период времени, мм. При наведении курсора мыши на число - период времени, за который выпало указанное количество осадков.
R24 - Количество осадков - Количество выпавших осадков за 24 часа, мм.
S - Снежный покров - Высота снежного покрова, см. При наведении курсора мыши на число - состояние снежного покрова и степень покрытия местности в баллах.